When you browse on this site, cookies collect data to enhance your experience and personalize the content and advertising you see.
Visit our Privacy Policy to learn more. By continuing to use the site, you agree to this use of cookies and data.
  • In Österreich
  • Länderverzeichnis
  • Für 7 Tage
  • Wassertemperatur
  • Wetterkarte
  • News
  • Widgets
  • user-avatar
    Anmelden

    Stündliche Wetter Ilincy

    Heute, 15 September, Sonntag

    Zeit Temperatur Niederschläge Wind Luftdruck Luftfeuchtigkeit
    00:00 +10°C° 0 mm 3 m/S 749 mmHg 68%
    01:00 +10°C° 0 mm 3 m/S 749 mmHg 70%
    02:00 +9°C° 0 mm 2 m/S 749 mmHg 71%
    03:00 +9°C° 0 mm 2 m/S 749 mmHg 74%
    04:00 +8°C° 0 mm 2 m/S 749 mmHg 78%
    05:00 +8°C° 0 mm 2 m/S 748 mmHg 81%
    06:00 +10°C° 0 mm 2 m/S 749 mmHg 74%
    07:00 +12°C° 0 mm 2 m/S 749 mmHg 67%
    08:00 +14°C° 0 mm 2 m/S 749 mmHg 60%
    09:00 +16°C° 0 mm 3 m/S 749 mmHg 53%
    10:00 +17°C° 0 mm 3 m/S 748 mmHg 46%
    11:00 +19°C° 0 mm 3 m/S 748 mmHg 38%
    12:00 +20°C° 0 mm 3 m/S 748 mmHg 35%
    13:00 +20°C° 0 mm 3 m/S 747 mmHg 32%
    14:00 +21°C° 0 mm 4 m/S 747 mmHg 29%
    15:00 +21°C° 0 mm 3 m/S 746 mmHg 30%
    16:00 +20°C° 0 mm 3 m/S 746 mmHg 32%
    17:00 +20°C° 0 mm 3 m/S 745 mmHg 33%
    18:00 +18°C° 0 mm 3 m/S 745 mmHg 38%
    19:00 +16°C° 0 mm 2 m/S 744 mmHg 42%
    20:00 +14°C° 0 mm 2 m/S 744 mmHg 47%
    21:00 +13°C° 0 mm 3 m/S 744 mmHg 48%
    22:00 +12°C° 0 mm 3 m/S 743 mmHg 50%
    23:00 +12°C° 0 mm 3 m/S 743 mmHg 51%

    Morgen, 16 September, Montag

    Zeit Temperatur Niederschläge Wind Luftdruck Luftfeuchtigkeit
    00:00 +12°C° 0 mm 3 m/S 743 mmHg 54%
    01:00 +11°C° 0 mm 3 m/S 742 mmHg 56%
    02:00 +11°C° 0 mm 3 m/S 742 mmHg 59%
    03:00 +11°C° 0 mm 3 m/S 742 mmHg 59%
    04:00 +11°C° 0 mm 3 m/S 741 mmHg 60%
    05:00 +11°C° 0 mm 3 m/S 741 mmHg 60%
    06:00 +13°C° 0 mm 4 m/S 741 mmHg 57%
    07:00 +14°C° 0 mm 5 m/S 741 mmHg 53%
    08:00 +16°C° 0 mm 5 m/S 741 mmHg 50%
    09:00 +19°C° 0 mm 5 m/S 741 mmHg 47%
    10:00 +21°C° 0 mm 6 m/S 740 mmHg 44%
    11:00 +23°C° 0 mm 6 m/S 740 mmHg 41%
    12:00 +24°C° 0 mm 6 m/S 740 mmHg 39%
    13:00 +24°C° 0 mm 6 m/S 739 mmHg 36%
    14:00 +26°C° 0 mm 6 m/S 739 mmHg 34%
    15:00 +24°C° 0 mm 6 m/S 738 mmHg 36%
    16:00 +25°C° 0 mm 5 m/S 738 mmHg 37%
    17:00 +23°C° 0 mm 5 m/S 738 mmHg 39%
    18:00 +21°C° 0 mm 4 m/S 738 mmHg 46%
    19:00 +19°C° 0 mm 4 m/S 738 mmHg 54%
    20:00 +17°C° 0 mm 3 m/S 738 mmHg 61%
    21:00 +17°C° 0 mm 3 m/S 738 mmHg 65%
    22:00 +16°C° 0 mm 3 m/S 738 mmHg 69%
    23:00 +16°C° 0 mm 3 m/S 737 mmHg 73%

    übermorgen, 17 September, Dienstag

    Zeit Temperatur Niederschläge Wind Luftdruck Luftfeuchtigkeit
    00:00 +14°C° 0.1 mm 3 m/S 737 mmHg 77%
    01:00 +14°C° 0.1 mm 3 m/S 737 mmHg 80%
    02:00 +14°C° 0.1 mm 3 m/S 737 mmHg 84%
    03:00 +13°C° 0.1 mm 3 m/S 737 mmHg 86%
    04:00 +13°C° 0.1 mm 3 m/S 736 mmHg 88%
    05:00 +14°C° 0.1 mm 2 m/S 736 mmHg 90%
    06:00 +13°C° 1.1 mm 3 m/S 736 mmHg 91%
    07:00 +13°C° 1.1 mm 3 m/S 736 mmHg 93%
    08:00 +13°C° 1.1 mm 3 m/S 735 mmHg 94%
    09:00 +13°C° 0.8 mm 3 m/S 736 mmHg 93%
    10:00 +13°C° 0.8 mm 4 m/S 736 mmHg 92%
    11:00 +13°C° 0.8 mm 4 m/S 736 mmHg 90%
    12:00 +14°C° 0.1 mm 5 m/S 736 mmHg 81%
    13:00 +15°C° 0.1 mm 5 m/S 736 mmHg 73%
    14:00 +16°C° 0.1 mm 6 m/S 736 mmHg 64%
    15:00 +16°C° 0 mm 6 m/S 735 mmHg 59%
    16:00 +16°C° 0 mm 6 m/S 735 mmHg 55%
    17:00 +16°C° 0 mm 6 m/S 735 mmHg 50%
    18:00 +14°C° 0 mm 5 m/S 735 mmHg 55%
    19:00 +13°C° 0 mm 4 m/S 735 mmHg 60%
    20:00 +11°C° 0 mm 3 m/S 735 mmHg 65%
    21:00 +11°C° 0 mm 3 m/S 735 mmHg 66%
    22:00 +11°C° 0 mm 4 m/S 735 mmHg 66%
    23:00 +11°C° 0 mm 4 m/S 735 mmHg 66%

    18 September, Mittwoch

    Zeit Temperatur Niederschläge Wind Luftdruck Luftfeuchtigkeit
    00:00 +9°C° 0.1 mm 5 m/S 735 mmHg 68%
    01:00 +9°C° 0.1 mm 5 m/S 735 mmHg 69%
    02:00 +9°C° 0.1 mm 5 m/S 735 mmHg 71%
    03:00 +8°C° 0 mm 5 m/S 735 mmHg 72%
    04:00 +8°C° 0 mm 5 m/S 735 mmHg 74%
    05:00 +8°C° 0 mm 5 m/S 735 mmHg 75%
    06:00 +8°C° 0 mm 6 m/S 736 mmHg 71%
    07:00 +9°C° 0 mm 7 m/S 736 mmHg 66%
    08:00 +9°C° 0 mm 8 m/S 736 mmHg 62%
    09:00 +10°C° 0 mm 9 m/S 737 mmHg 57%
    10:00 +11°C° 0 mm 9 m/S 737 mmHg 52%
    11:00 +12°C° 0 mm 9 m/S 738 mmHg 48%
    12:00 +12°C° 0 mm 9 m/S 738 mmHg 46%
    13:00 +12°C° 0 mm 9 m/S 738 mmHg 45%
    14:00 +12°C° 0 mm 9 m/S 739 mmHg 44%
    15:00 +12°C° 0 mm 8 m/S 739 mmHg 47%
    16:00 +11°C° 0 mm 8 m/S 739 mmHg 49%
    17:00 +10°C° 0 mm 7 m/S 740 mmHg 51%
    18:00 +9°C° 0 mm 6 m/S 740 mmHg 56%
    19:00 +8°C° 0 mm 5 m/S 741 mmHg 60%
    20:00 +7°C° 0 mm 4 m/S 741 mmHg 65%
    21:00 +7°C° 0 mm 4 m/S 741 mmHg 68%
    22:00 +7°C° 0 mm 3 m/S 741 mmHg 71%
    23:00 +5°C° 0 mm 3 m/S 741 mmHg 74%

    19 September, Donnerstag

    Zeit Temperatur Niederschläge Wind Luftdruck Luftfeuchtigkeit
    00:00 +5°C° 0 mm 4 m/S 742 mmHg 76%
    01:00 +5°C° 0 mm 4 m/S 742 mmHg 77%
    02:00 +4°C° 0 mm 4 m/S 742 mmHg 78%
    03:00 +4°C° 0 mm 4 m/S 742 mmHg 80%
    04:00 +4°C° 0 mm 4 m/S 742 mmHg 83%
    05:00 +3°C° 0 mm 4 m/S 741 mmHg 85%
    06:00 +5°C° 0 mm 4 m/S 742 mmHg 79%
    07:00 +6°C° 0 mm 4 m/S 742 mmHg 74%
    08:00 +7°C° 0 mm 4 m/S 742 mmHg 68%
    09:00 +9°C° 0 mm 5 m/S 742 mmHg 61%
    10:00 +12°C° 0 mm 5 m/S 742 mmHg 53%
    11:00 +14°C° 0 mm 5 m/S 742 mmHg 45%
    12:00 +14°C° 0.2 mm 5 m/S 742 mmHg 45%
    13:00 +15°C° 0.2 mm 5 m/S 741 mmHg 44%
    14:00 +15°C° 0.2 mm 5 m/S 741 mmHg 44%
    15:00 +14°C° 0.2 mm 5 m/S 741 mmHg 48%
    16:00 +14°C° 0.2 mm 4 m/S 741 mmHg 52%
    17:00 +13°C° 0.2 mm 4 m/S 741 mmHg 55%
    18:00 +11°C° 0 mm 3 m/S 741 mmHg 61%
    19:00 +10°C° 0 mm 3 m/S 742 mmHg 68%
    20:00 +8°C° 0 mm 2 m/S 742 mmHg 74%
    21:00 +7°C° 0 mm 2 m/S 742 mmHg 76%
    22:00 +7°C° 0 mm 2 m/S 742 mmHg 78%
    23:00 +6°C° 0 mm 2 m/S 742 mmHg 80%

    20 September, Freitag

    Zeit Temperatur Niederschläge Wind Luftdruck Luftfeuchtigkeit
    00:00 +6°C° 0 mm 2 m/S 742 mmHg 82%
    01:00 +6°C° 0 mm 2 m/S 742 mmHg 83%
    02:00 +6°C° 0 mm 2 m/S 742 mmHg 84%
    03:00 +5°C° 0 mm 2 m/S 742 mmHg 85%
    04:00 +5°C° 0 mm 2 m/S 742 mmHg 87%
    05:00 +4°C° 0 mm 2 m/S 742 mmHg 88%
    06:00 +5°C° 0 mm 3 m/S 743 mmHg 83%
    07:00 +7°C° 0 mm 3 m/S 743 mmHg 78%
    08:00 +8°C° 0 mm 3 m/S 743 mmHg 73%
    09:00 +10°C° 0 mm 3 m/S 743 mmHg 63%
    10:00 +12°C° 0 mm 3 m/S 743 mmHg 53%
    11:00 +14°C° 0 mm 4 m/S 743 mmHg 43%
    12:00 +14°C° 0.1 mm 4 m/S 743 mmHg 42%
    13:00 +14°C° 0.1 mm 4 m/S 743 mmHg 41%
    14:00 +14°C° 0.1 mm 4 m/S 742 mmHg 40%
    15:00 +14°C° 0 mm 4 m/S 742 mmHg 40%
    16:00 +13°C° 0 mm 4 m/S 743 mmHg 39%
    17:00 +13°C° 0 mm 4 m/S 743 mmHg 39%
    18:00 +11°C° 0 mm 4 m/S 743 mmHg 46%
    19:00 +8°C° 0 mm 4 m/S 744 mmHg 53%
    20:00 +6°C° 0 mm 4 m/S 744 mmHg 60%
    21:00 +6°C° 0 mm 4 m/S 744 mmHg 68%
    22:00 +5°C° 0 mm 4 m/S 744 mmHg 77%
    23:00 +4°C° 0 mm 4 m/S 745 mmHg 86%
    Mehr zeigen